Regional Weather Roundup
Issued by NWS Green Bay, WI

Home | Current Version | Previous Version | Graphics & Text | Print | Product List | Glossary Off
Versions: 1 2 3 4 5 6 7 8 9 10 11 12 13 14 15 16 17 18 19 20 21 22 23 24 25 26 27 28 29 30 31 32 33 34 35 36 37 38 39 40 41 42 43 44 45 46 47 48 49 50

000
ASUS43 KGRB 050900
RWRGRB

NORTH-CENTRAL AND NORTHEAST WISCONSIN REGIONAL WEATHER ROUNDUP
NATIONAL WEATHER SERVICE GREEN BAY WI
300 AM CST MON DEC 05 2016

WIZ005-009-010>012-018-019-051000-
NORTH CENTRAL WISCONSIN

CITY           SKY/WX    TMP DP  RH WIND       PRES   REMARKS
IRONWOOD       CLOUDY    33  28  81 SW13      29.72R
MANITOWISH WTR NOT AVBL
ARBOR VITAE    NOT AVBL
EAGLE RIVER    NOT AVBL
LAND O LAKES   NOT AVBL
RHINELANDER    CLOUDY    33  30  88 W14       29.74R
PHILLIPS       NOT AVBL
ANTIGO         NOT AVBL
TOMAHAWK       NOT AVBL
MERRILL        NOT AVBL
$$

WIZ013-073-051000-
NORTHEAST WISCONSIN

CITY           SKY/WX    TMP DP  RH WIND       PRES   REMARKS
IRON MOUNTAIN  CLOUDY    33  29  85 SW7       29.72R
MARINETTE      CLOUDY    32  31  96 W8        29.80R
$$

WIZ017-030-035>037-045-051000-
CENTRAL WISCONSIN

CITY           SKY/WX    TMP DP  RH WIND       PRES   REMARKS
MEDFORD        NOT AVBL
WAUSAU         CLOUDY    34  29  82 W14       29.79R
MOSINEE        NOT AVBL
MARSHFIELD     CLOUDY    33  31  92 W10       29.81R
WISC RAPIDS    CLOUDY    34  33  96 SW7       29.85R
STEVENS POINT  NOT AVBL
WAUPACA        NOT AVBL
SHAWANO        NOT AVBL
CLINTONVILLE   NOT AVBL
WAUTOMA        CLOUDY    33  32  96 SW10      29.86S
$$

WIZ038-039-048-051-051000-
FOX VALLEY

CITY           SKY/WX    TMP DP  RH WIND       PRES   REMARKS
NWS GREEN BAY  CLOUDY    35  33  92 SW12      29.84R
APPLETON       NOT AVBL
OSHKOSH        CLOUDY    34  30  85 SW9       29.85R
FOND DU LAC    CLOUDY    34  29  82 SW13      29.88R
$$

WIZ022-050-052-051000-
EAST CENTRAL WISCONSIN

CITY           SKY/WX    TMP DP  RH WIND       PRES   REMARKS
EPHRAIM        NOT AVBL
WASHINGTON ISL NOT AVBL
STURGEON BAY   CLOUDY    33  31  92 SW9       29.82R
MANITOWOC      NOT AVBL
SHEBOYGAN      CLOUDY    34  30  85 W10       29.87R
$$

LMZ563-521-522-541>543-051000-
LAKESHORE

STATION/POSITION TIME  TEMP    WIND        PRES    VSBY  WAVE
                       AIR SEA DIR/SP/G                  HT/PER
                 (UTC) (F)     (DEG/KT/KT) (MB)    (MI)  (FT/S)
SHEBOYGAN LKSHOR 0800   34     240/ 12/ 15 1011.6R
KEWAUNEE LKSHORE 0830   34     250/  9/ 12 1009.6R
ALGOMA MARINA    0836          260/  8/ 13   N/A
NORTHPORT PIER   0840   35     240/  4/ 11 1008.5R
SISTER BAY LKSHO 0808   36     260/ 18/ 21   N/A
CHAMBERS ISLAND  0840   35     220/  9/ 18 1008.1R
MENOMINEE LKSHOR 0830   33     210/ 12/ 17 1008.1R
$$




USA.gov is the U.S. government's official web portal to all federal, state and local government web resources and services.